• In Deutschland
  • Länderverzeichnis
  • Für 7 Tage
  • Wassertemperatur
  • Satellitenkarten
  • Wetterkarte
  • Widgets
  • user-avatar
    Anmelden

    Stündliche Wetter Mühlacker

    Heute, 12 Dezember, Dienstag

    Zeit Temperatur Niederschläge Wind Luftdruck Luftfeuchtigkeit
    00:00 +3°C° 0,1 mm 5 m/S 720 mmHg 81%
    01:00 +3°C° 0 mm 5 m/S 720 mmHg 82%
    02:00 +2°C° 0,1 mm 6 m/S 722 mmHg 82%
    03:00 +2°C° 0,1 mm 6 m/S 723 mmHg 81%
    04:00 0°C° 0,1 mm 7 m/S 724 mmHg 80%
    05:00 0°C° 0 mm 7 m/S 726 mmHg 81%
    06:00 -1°C° 0 mm 6 m/S 727 mmHg 81%
    07:00 0°C° 0 mm 5 m/S 729 mmHg 83%
    08:00 0°C° 0 mm 5 m/S 730 mmHg 83%
    09:00 0°C° 0 mm 5 m/S 732 mmHg 82%
    10:00 0°C° 0 mm 5 m/S 733 mmHg 82%
    11:00 +1°C° 0 mm 5 m/S 734 mmHg 81%
    12:00 +1°C° 0 mm 5 m/S 734 mmHg 79%
    13:00 +1°C° 0 mm 5 m/S 735 mmHg 78%
    14:00 +1°C° 0 mm 4 m/S 736 mmHg 79%
    15:00 +1°C° 0 mm 4 m/S 736 mmHg 81%
    16:00 +1°C° 0 mm 3 m/S 737 mmHg 82%
    17:00 +1°C° 0 mm 3 m/S 737 mmHg 84%
    18:00 0°C° 0 mm 3 m/S 738 mmHg 86%
    19:00 -1°C° 0 mm 2 m/S 739 mmHg 88%
    20:00 -1°C° 0 mm 2 m/S 739 mmHg 88%
    21:00 -1°C° 0 mm 2 m/S 740 mmHg 89%
    22:00 -1°C° 0 mm 3 m/S 741 mmHg 89%
    23:00 -1°C° 0 mm 3 m/S 741 mmHg 89%

    Morgen, 13 Dezember, Mittwoch

    Zeit Temperatur Niederschläge Wind Luftdruck Luftfeuchtigkeit
    00:00 -1°C° 0 mm 2 m/S 741 mmHg 89%
    01:00 -2°C° 0 mm 2 m/S 741 mmHg 89%
    02:00 -2°C° 0 mm 3 m/S 741 mmHg 89%
    03:00 -2°C° 0 mm 3 m/S 741 mmHg 89%
    04:00 -2°C° 0 mm 3 m/S 741 mmHg 88%
    05:00 -2°C° 0 mm 3 m/S 741 mmHg 87%
    06:00 -2°C° 0 mm 3 m/S 741 mmHg 86%
    07:00 -1°C° 0 mm 3 m/S 740 mmHg 84%
    08:00 -2°C° 0 mm 4 m/S 740 mmHg 80%
    09:00 -1°C° 0 mm 4 m/S 740 mmHg 76%
    10:00 0°C° 0 mm 5 m/S 739 mmHg 72%
    11:00 +1°C° 0 mm 5 m/S 738 mmHg 70%
    12:00 +2°C° 0 mm 5 m/S 737 mmHg 67%
    13:00 +2°C° 0 mm 5 m/S 736 mmHg 65%
    14:00 +2°C° 0,6 mm 5 m/S 735 mmHg 68%
    15:00 +2°C° 0,6 mm 5 m/S 734 mmHg 71%
    16:00 +2°C° 0,6 mm 5 m/S 733 mmHg 74%
    17:00 +2°C° 0,6 mm 5 m/S 733 mmHg 76%
    18:00 +3°C° 0,6 mm 6 m/S 732 mmHg 78%
    19:00 +3°C° 0,6 mm 7 m/S 732 mmHg 81%
    20:00 +3°C° 0,3 mm 7 m/S 731 mmHg 82%
    21:00 +4°C° 0,3 mm 6 m/S 730 mmHg 83%
    22:00 +4°C° 0,3 mm 6 m/S 729 mmHg 84%
    23:00 +4°C° 0,4 mm 7 m/S 728 mmHg 84%

    übermorgen, 14 Dezember, Donnerstag

    Zeit Temperatur Niederschläge Wind Luftdruck Luftfeuchtigkeit
    00:00 +5°C° 0,4 mm 7 m/S 728 mmHg 84%
    01:00 +5°C° 0,4 mm 8 m/S 727 mmHg 84%
    02:00 +5°C° 0,6 mm 8 m/S 727 mmHg 83%
    03:00 +5°C° 0,6 mm 7 m/S 727 mmHg 82%
    04:00 +5°C° 0,6 mm 7 m/S 727 mmHg 81%
    05:00 +4°C° 0,3 mm 7 m/S 728 mmHg 80%
    06:00 +3°C° 0,3 mm 7 m/S 729 mmHg 79%
    07:00 +3°C° 0,3 mm 7 m/S 729 mmHg 78%
    08:00 +3°C° 0,4 mm 6 m/S 730 mmHg 79%
    09:00 +2°C° 0,4 mm 5 m/S 730 mmHg 79%
    10:00 +2°C° 0,4 mm 5 m/S 731 mmHg 80%
    11:00 +3°C° 0,3 mm 5 m/S 730 mmHg 79%
    12:00 +3°C° 0,3 mm 5 m/S 730 mmHg 78%
    13:00 +5°C° 0,3 mm 5 m/S 729 mmHg 77%
    14:00 +5°C° 0,3 mm 5 m/S 728 mmHg 78%
    15:00 +5°C° 0,3 mm 5 m/S 726 mmHg 79%
    16:00 +4°C° 0,3 mm 6 m/S 725 mmHg 80%
    17:00 +4°C° 0,9 mm 7 m/S 724 mmHg 79%
    18:00 +5°C° 0,9 mm 8 m/S 723 mmHg 79%
    19:00 +5°C° 0,9 mm 9 m/S 722 mmHg 78%
    20:00 +4°C° 3 mm 8 m/S 722 mmHg 80%
    21:00 +4°C° 3 mm 8 m/S 722 mmHg 82%
    22:00 +3°C° 3 mm 7 m/S 722 mmHg 84%
    23:00 +3°C° 0,2 mm 7 m/S 723 mmHg 83%

    15 Dezember, Freitag

    Zeit Temperatur Niederschläge Wind Luftdruck Luftfeuchtigkeit
    00:00 +2°C° 0,2 mm 6 m/S 724 mmHg 81%
    01:00 +1°C° 0,2 mm 6 m/S 725 mmHg 79%
    02:00 +1°C° 0 mm 5 m/S 726 mmHg 80%
    03:00 0°C° 0 mm 5 m/S 726 mmHg 81%
    04:00 0°C° 0 mm 4 m/S 727 mmHg 82%
    05:00 0°C° 0 mm 4 m/S 727 mmHg 82%
    06:00 0°C° 0 mm 4 m/S 727 mmHg 82%
    07:00 0°C° 0 mm 5 m/S 727 mmHg 82%
    08:00 0°C° 0,1 mm 5 m/S 728 mmHg 82%
    09:00 +1°C° 0,1 mm 5 m/S 728 mmHg 81%
    10:00 +1°C° 0,1 mm 5 m/S 728 mmHg 81%
    11:00 +2°C° 0 mm 5 m/S 728 mmHg 79%
    12:00 +2°C° 0 mm 5 m/S 728 mmHg 77%
    13:00 +3°C° 0 mm 5 m/S 728 mmHg 75%
    14:00 +2°C° 0 mm 5 m/S 728 mmHg 76%
    15:00 +3°C° 0 mm 4 m/S 727 mmHg 78%
    16:00 +3°C° 0 mm 3 m/S 727 mmHg 80%
    17:00 +2°C° 0,1 mm 3 m/S 727 mmHg 81%
    18:00 +2°C° 0,1 mm 3 m/S 728 mmHg 82%
    19:00 +3°C° 0,1 mm 2 m/S 728 mmHg 83%
    20:00 +2°C° 0,4 mm 3 m/S 728 mmHg 85%
    21:00 +2°C° 0,4 mm 3 m/S 729 mmHg 86%
    22:00 +2°C° 0,4 mm 3 m/S 730 mmHg 88%
    23:00 +1°C° 0,3 mm 4 m/S 730 mmHg 88%

    16 Dezember, Samstag

    Zeit Temperatur Niederschläge Wind Luftdruck Luftfeuchtigkeit
    00:00 0°C° 0,3 mm 4 m/S 731 mmHg 89%
    01:00 0°C° 0,3 mm 5 m/S 731 mmHg 90%
    02:00 0°C° 0,1 mm 4 m/S 732 mmHg 90%
    03:00 -1°C° 0,1 mm 4 m/S 732 mmHg 91%
    04:00 0°C° 0,1 mm 3 m/S 733 mmHg 91%
    05:00 -1°C° 0 mm 3 m/S 734 mmHg 92%
    06:00 -1°C° 0 mm 3 m/S 734 mmHg 92%
    07:00 -1°C° 0 mm 2 m/S 735 mmHg 93%
    08:00 -1°C° 0 mm 3 m/S 735 mmHg 91%
    09:00 0°C° 0 mm 3 m/S 736 mmHg 90%
    10:00 0°C° 0 mm 3 m/S 736 mmHg 88%
    11:00 +1°C° 0 mm 3 m/S 737 mmHg 86%
    12:00 +1°C° 0 mm 3 m/S 737 mmHg 84%
    13:00 +1°C° 0 mm 4 m/S 737 mmHg 82%
    14:00 0°C° 0 mm 4 m/S 737 mmHg 83%
    15:00 0°C° 0 mm 4 m/S 737 mmHg 83%
    16:00 0°C° 0 mm 4 m/S 738 mmHg 84%
    17:00 +1°C° 0 mm 3 m/S 738 mmHg 85%
    18:00 0°C° 0 mm 3 m/S 739 mmHg 86%
    19:00 0°C° 0 mm 3 m/S 739 mmHg 87%
    20:00 0°C° 0,1 mm 3 m/S 740 mmHg 88%
    21:00 0°C° 0,1 mm 3 m/S 740 mmHg 89%
    22:00 0°C° 0,1 mm 3 m/S 741 mmHg 90%
    23:00 -1°C° 0 mm 3 m/S 741 mmHg 91%

    17 Dezember, Sonntag

    Zeit Temperatur Niederschläge Wind Luftdruck Luftfeuchtigkeit
    00:00 -1°C° 0 mm 3 m/S 741 mmHg 92%
    01:00 -1°C° 0 mm 3 m/S 741 mmHg 93%
    02:00 -1°C° 0 mm 2 m/S 742 mmHg 93%
    03:00 -1°C° 0 mm 2 m/S 742 mmHg 93%
    04:00 -1°C° 0 mm 2 m/S 742 mmHg 93%
    05:00 -1°C° 0 mm 2 m/S 743 mmHg 93%
    06:00 -1°C° 0 mm 2 m/S 743 mmHg 92%
    07:00 -1°C° 0 mm 2 m/S 743 mmHg 92%
    08:00 -1°C° 0,1 mm 3 m/S 744 mmHg 91%
    09:00 -1°C° 0,1 mm 3 m/S 744 mmHg 89%
    10:00 0°C° 0,1 mm 3 m/S 745 mmHg 88%
    11:00 0°C° 0,1 mm 3 m/S 745 mmHg 86%
    12:00 0°C° 0,1 mm 3 m/S 745 mmHg 85%
    13:00 +1°C° 0,1 mm 3 m/S 745 mmHg 83%
    14:00 +1°C° 0,1 mm 3 m/S 746 mmHg 84%
    15:00 +1°C° 0,1 mm 2 m/S 746 mmHg 85%
    16:00 +1°C° 0,1 mm 2 m/S 746 mmHg 87%
    17:00 +1°C° 0 mm 2 m/S 747 mmHg 88%
    18:00 +1°C° 0 mm 2 m/S 747 mmHg 90%
    19:00 -1°C° 0 mm 2 m/S 748 mmHg 91%
    20:00 +1°C° 0 mm 1 m/S 748 mmHg 92%
    21:00 +1°C° 0 mm 1 m/S 748 mmHg 92%
    22:00 0°C° 0 mm 1 m/S 749 mmHg 93%
    23:00 0°C° 0 mm 1 m/S 749 mmHg 92%
    Mehr zeigen